Location: Colonia Mina de C?rbuni
(46.1667°N, 22.7167°E)
Time: 21:34:19
(UTC+00:00)

Tiros 1 - Pass Details

Date: 22 April 2024
Orbit: 624 x 657 km, 48.4° (Epoch: 20 May)

Event Time Altitude Azimuth Distance (km) Brightness Sun altitude
Rises 21:56:29 0° 235° (SW) 2,934 - -30.8°
Reaches altitude 10° 21:58:50 10° 231° (SW) 2,021 - -30.9°
Maximum altitude 22:03:24 58° 153° (SSE) 737 - -31.0°
Drops below altitude 10° 22:07:57 10° 75° (ENE) 2,009 - -31.1°
Exits shadow 22:09:28 - 72° (ENE) 2,599 10.4 -31.1°
Sets 22:10:17 0° 71° (ENE) 2,914 10.7 -31.1°
